Date String (YYYY-MM-DD hh:mm:ss) UTC,Instrument flags,absolute air pressure of the measurement (hPa),sample flow rate (lpm),inlet stack bypass flow (lpm),air temperature of the measurement (°C),ambient temperature measured by the external sensor (°C),aerosol sample conditioner tube jacket temperature (°C),OPC LED temperature (°C),internal box temperature (°C),relative humidity of the measurement (%),span deviation,mass concentration of particles derived from Lorenz-Mie calculation of OPC scattering (μg/m³),mass concentration of particles derived from Lorenz-Mie calculation of OPC scattering (μg/m³),mass concentration of particles derived from Lorenz-Mie calculation of OPC scattering (μg/m³)
DateTimeUTC,F1_M11,P_M11,Q1_M11,Q2_M11,T1_M11,T2_M11,T3_M11,T4_M11,T5_M11,U1_M11,ZSPAN_M11,X0_M11,X2_M11,X1_M11
2023-12-27 04:00:00,SystemResetWarning,0827.2,5.00,000.00,019.8,019.2,000.0,028.1,021.1,13.3,0000.0,0003.70,0002.14,0001.63
2023-12-27 04:01:00,SystemResetWarning,0827.2,5.00,000.00,019.8,019.2,000.0,028.1,021.1,13.3,0000.0,0004.03,0002.17,0001.67
2023-12-27 04:02:00,SystemResetWarning,0827.2,5.00,000.00,019.8,019.2,000.0,028.1,021.1,13.3,0000.0,0004.16,0002.22,0001.70
2023-12-27 04:03:00,SystemResetWarning,0827.3,5.00,000.00,019.8,019.2,000.0,028.1,021.1,13.2,0000.0,0004.32,0002.30,0001.75
2023-12-27 04:04:00,SystemResetWarning,0827.3,5.00,000.00,019.8,019.2,000.0,028.1,021.0,13.2,0000.0,0004.57,0002.39,0001.80
2023-12-27 04:05:00,SystemResetWarning,0827.3,5.00,000.00,019.8,019.1,000.0,028.1,021.0,13.2,0000.0,0004.49,0002.38,0001.84
2023-12-27 04:06:00,SystemResetWarning,0827.2,5.00,000.00,019.8,019.1,000.0,028.1,021.0,13.2,0000.0,0004.61,0002.46,0001.87
2023-12-27 04:07:00,SystemResetWarning,0827.2,4.99,000.00,019.8,019.1,000.0,028.1,021.0,13.1,0000.0,0004.61,0002.52,0001.92
2023-12-27 04:08:00,SystemResetWarning,0827.2,5.00,000.00,019.8,019.1,000.0,028.1,021.0,13.1,0000.0,0004.74,0002.58,0001.96
2023-12-27 04:09:00,SystemResetWarning,0827.2,5.00,000.00,019.8,019.1,000.0,028.1,021.0,13.2,0000.0,0004.75,0002.57,0001.96
2023-12-27 04:10:00,SystemResetWarning,0827.3,5.00,000.00,019.8,019.1,000.0,028.1,021.0,13.2,0000.0,0004.58,0002.52,0001.93
2023-12-27 04:11:00,SystemResetWarning,0827.3,5.00,000.00,019.8,019.1,000.0,028.1,021.0,13.2,0000.0,0004.41,0002.43,0001.89
2023-12-27 04:12:00,SystemResetWarning,0827.3,5.00,000.00,019.8,019.1,000.0,028.1,021.0,13.1,0000.0,0003.93,0002.38,0001.86
2023-12-27 04:13:00,SystemResetWarning,0827.3,5.00,000.00,019.8,019.1,000.0,028.1,021.1,13.1,0000.0,0003.76,0002.31,0001.83
2023-12-27 04:14:00,SystemResetWarning,0827.4,5.00,000.00,019.8,019.1,000.0,028.1,021.1,13.1,0000.0,0003.61,0002.22,0001.76
2023-12-27 04:15:00,SystemResetWarning,0827.4,4.99,000.00,019.8,019.2,000.0,028.1,021.1,13.0,0000.0,0003.48,0002.11,0001.69
2023-12-27 04:16:00,SystemResetWarning,0827.3,5.00,000.00,019.8,019.2,000.0,028.1,021.1,13.0,0000.0,0003.80,0002.00,0001.60
2023-12-27 04:17:00,SystemResetWarning,0827.4,5.00,000.00,019.8,019.2,000.0,028.1,021.1,13.1,0000.0,0003.61,0001.85,0001.52
2023-12-27 04:18:00,SystemResetWarning,0827.3,5.00,000.00,019.8,019.2,000.0,028.1,021.1,13.1,0000.0,0004.32,0001.83,0001.44
2023-12-27 04:19:00,SystemResetWarning,0827.4,5.00,000.00,019.8,019.2,000.0,028.1,021.1,13.1,0000.0,0004.66,0001.81,0001.38
2023-12-27 04:20:00,SystemResetWarning,0827.4,5.00,000.00,019.8,019.2,000.0,028.1,021.1,13.0,0000.0,0004.33,0001.73,0001.32
2023-12-27 04:21:00,SystemResetWarning,0827.4,5.00,000.00,019.8,019.2,000.0,028.1,021.1,13.0,0000.0,0004.18,0001.64,0001.28
2023-12-27 04:22:00,SystemResetWarning,0827.4,5.00,000.00,019.8,019.2,000.0,028.1,021.1,13.1,0000.0,0004.03,0001.59,0001.23
2023-12-27 04:23:00,SystemResetWarning,0827.4,5.00,000.00,019.9,019.2,000.0,028.1,021.1,13.1,0000.0,0004.33,0001.52,0001.17
2023-12-27 04:24:00,SystemResetWarning,0827.4,5.01,000.00,019.9,019.2,000.0,028.1,021.1,13.2,0000.0,0004.28,0001.47,0001.10
2023-12-27 04:25:00,SystemResetWarning,0827.4,5.00,000.00,019.9,019.2,000.0,028.1,021.1,13.2,0000.0,0004.18,0001.43,0001.08
2023-12-27 04:26:00,SystemResetWarning,0827.4,5.00,000.00,019.9,019.2,000.0,028.1,021.1,13.1,0000.0,0004.22,0001.44,0001.06
2023-12-27 04:27:00,SystemResetWarning,0827.4,4.99,000.00,019.9,019.2,000.0,028.1,021.1,13.0,0000.0,0004.68,0001.49,0001.04
2023-12-27 04:28:00,SystemResetWarning,0827.4,5.00,000.00,019.9,019.2,000.0,028.1,021.1,12.9,0000.0,0004.94,0001.51,0001.05
2023-12-27 04:29:00,SystemResetWarning,0827.4,5.00,000.00,019.9,019.2,000.0,028.1,021.1,12.9,0000.0,0004.08,0001.40,0001.03
2023-12-27 04:30:00,SystemResetWarning,0827.3,5.00,000.00,019.9,019.2,000.0,028.1,021.1,12.9,0000.0,0003.54,0001.29,0000.97
2023-12-27 04:31:00,SystemResetWarning,0827.4,5.00,000.00,019.9,019.2,000.0,028.1,021.1,12.9,0000.0,0003.58,0001.27,0000.94
2023-12-27 04:32:00,SystemResetWarning,0827.4,5.00,000.00,019.9,019.2,000.0,028.1,021.1,12.9,0000.0,0003.60,0001.30,0000.94
2023-12-27 04:33:00,SystemResetWarning,0827.4,4.99,000.00,019.9,019.2,000.0,028.1,021.2,12.8,0000.0,0003.66,0001.32,0000.95
2023-12-27 04:34:00,SystemResetWarning,0827.4,5.00,000.00,019.9,019.2,000.0,028.1,021.2,12.8,0000.0,0003.30,0001.34,0000.96
2023-12-27 04:35:00,SystemResetWarning,0827.4,5.00,000.00,019.9,019.2,000.0,028.2,021.2,12.9,0000.0,0003.27,0001.35,0000.98
2023-12-27 04:36:00,SystemResetWarning,0827.4,5.00,000.00,019.9,019.3,000.0,028.2,021.2,12.8,0000.0,0003.27,0001.36,0000.99
2023-12-27 04:37:00,SystemResetWarning,0827.4,5.00,000.00,019.9,019.3,000.0,028.2,021.2,12.8,0000.0,0003.13,0001.29,0000.97
2023-12-27 04:38:00,SystemResetWarning,0827.4,5.00,000.00,019.9,019.3,000.0,028.2,021.2,12.8,0000.0,0002.03,0001.19,0000.94
2023-12-27 04:39:00,SystemResetWarning,0827.4,5.00,000.00,019.9,019.3,000.0,028.2,021.2,12.8,0000.0,0001.72,0001.18,0000.92
2023-12-27 04:40:00,SystemResetWarning,0827.4,5.00,000.00,019.9,019.3,000.0,028.2,021.2,12.8,0000.0,0001.80,0001.19,0000.90
2023-12-27 04:41:00,SystemResetWarning,0827.4,5.01,000.00,019.9,019.3,000.0,028.2,021.2,12.8,0000.0,0001.82,0001.20,0000.90
2023-12-27 04:42:00,SystemResetWarning,0827.4,5.01,000.00,019.9,019.3,000.0,028.2,021.3,12.8,0000.0,0001.70,0001.17,0000.88
2023-12-27 04:43:00,SystemResetWarning,0827.4,4.99,000.00,019.9,019.3,000.0,028.2,021.3,12.8,0000.0,0001.66,0001.12,0000.83
2023-12-27 04:44:00,SystemResetWarning,0827.3,5.00,000.00,019.9,019.3,000.0,028.2,021.3,12.8,0000.0,0001.59,0001.07,0000.80
2023-12-27 04:45:00,SystemResetWarning,0827.4,5.00,000.00,019.9,019.3,000.0,028.2,021.3,12.7,0000.0,0001.54,0001.02,0000.76
2023-12-27 04:46:00,SystemResetWarning,0827.4,5.00,000.00,019.9,019.3,000.0,028.2,021.3,12.7,0000.0,0001.52,0000.99,0000.72
2023-12-27 04:47:00,SystemResetWarning,0827.4,4.99,000.00,019.9,019.3,000.0,028.2,021.3,12.7,0000.0,0001.46,0000.95,0000.69
2023-12-27 04:48:00,SystemResetWarning,0827.4,5.00,000.00,019.9,019.3,000.0,028.2,021.3,12.7,0000.0,0001.43,0000.91,0000.65
2023-12-27 04:49:00,SystemResetWarning,0827.4,4.99,000.00,019.9,019.4,000.0,028.2,021.3,12.7,0000.0,0001.40,0000.90,0000.64
2023-12-27 04:50:00,SystemResetWarning,0827.3,5.00,000.00,020.0,019.4,000.0,028.2,021.3,12.7,0000.0,0001.38,0000.88,0000.64
2023-12-27 04:51:00,SystemResetWarning,0827.4,5.00,000.00,020.0,019.4,000.0,028.2,021.3,12.7,0000.0,0001.25,0000.83,0000.63
2023-12-27 04:52:00,SystemResetWarning,0827.4,5.01,000.00,020.0,019.4,000.0,028.2,021.3,12.7,0000.0,0001.15,0000.79,0000.61
2023-12-27 04:53:00,SystemResetWarning,0827.4,5.00,000.00,020.0,019.4,000.0,028.2,021.3,12.8,0000.0,0001.11,0000.78,0000.61
2023-12-27 04:54:00,SystemResetWarning,0827.4,5.01,000.00,020.0,019.4,000.0,028.3,021.3,12.8,0000.0,0001.08,0000.77,0000.60
2023-12-27 04:55:00,SystemResetWarning,0827.4,5.01,000.00,020.0,019.4,000.0,028.3,021.4,12.8,0000.0,0001.14,0000.76,0000.58
2023-12-27 04:56:00,SystemResetWarning,0827.4,5.00,000.00,020.0,019.4,000.0,028.3,021.4,12.8,0000.0,0001.14,0000.75,0000.57
2023-12-27 04:57:00,SystemResetWarning,0827.4,4.99,000.00,020.0,019.4,000.0,028.3,021.4,12.8,0000.0,0001.12,0000.74,0000.56
2023-12-27 04:58:00,SystemResetWarning,0827.8,4.99,000.00,020.0,019.4,000.0,028.3,021.4,12.8,0000.0,0001.10,0000.73,0000.56
2023-12-27 04:59:00,SystemResetWarning,0827.9,5.00,000.00,020.0,019.4,000.0,028.3,021.4,12.7,0000.0,0001.13,0000.73,0000.56
